• In Latvia
  • List of Countries
  • For 7 days
  • Water Temperature
  • Satellite Maps
  • Weather Map
  • Weather Widgets
  • user-avatar
    Login

    Hourly Weather Kreshnevo

    Today, 14 November, Wednesday

    Time Temperature Precipitation Wind Pressure Humidity
    00:00 -4°C° 0.9 mm 7 mps 757 mmHg 81%
    01:00 -4°C° 0.9 mm 7 mps 757 mmHg 80%
    02:00 -4°C° 0 mm 6 mps 756 mmHg 77%
    03:00 -4°C° 0.3 mm 6 mps 756 mmHg 74%
    04:00 -3°C° 0.3 mm 6 mps 756 mmHg 71%
    05:00 -3°C° 0.3 mm 6 mps 756 mmHg 69%
    06:00 -4°C° 0.4 mm 6 mps 756 mmHg 74%
    07:00 -4°C° 0.4 mm 6 mps 756 mmHg 79%
    08:00 -4°C° 0 mm 6 mps 756 mmHg 86%
    09:00 -4°C° 0.7 mm 6 mps 756 mmHg 86%
    10:00 -4°C° 0.7 mm 5 mps 756 mmHg 87%
    11:00 -4°C° 0.7 mm 5 mps 756 mmHg 87%
    12:00 -4°C° 0.4 mm 5 mps 756 mmHg 87%
    13:00 -4°C° 0.4 mm 5 mps 757 mmHg 86%
    14:00 -4°C° 0.4 mm 5 mps 757 mmHg 85%
    15:00 -3°C° 0.2 mm 4 mps 757 mmHg 85%
    16:00 -3°C° 0.2 mm 4 mps 757 mmHg 86%
    17:00 -3°C° 0.2 mm 4 mps 758 mmHg 86%
    18:00 -3°C° 0.1 mm 4 mps 758 mmHg 86%
    19:00 -2°C° 0.1 mm 3 mps 758 mmHg 86%
    20:00 -2°C° 0.1 mm 3 mps 759 mmHg 87%
    21:00 -2°C° 0.1 mm 3 mps 759 mmHg 87%
    22:00 -2°C° 0.1 mm 3 mps 759 mmHg 87%
    23:00 -2°C° 0.1 mm 3 mps 760 mmHg 87%

    Tomorrow, 15 November, Thursday

    Time Temperature Precipitation Wind Pressure Humidity
    00:00 -4°C° 0.1 mm 3 mps 760 mmHg 88%
    01:00 -4°C° 0.1 mm 3 mps 761 mmHg 88%
    02:00 -4°C° 0.1 mm 3 mps 761 mmHg 89%
    03:00 -4°C° 0.1 mm 3 mps 761 mmHg 89%
    04:00 -4°C° 0.1 mm 3 mps 762 mmHg 90%
    05:00 -3°C° 0.1 mm 2 mps 762 mmHg 91%
    06:00 -3°C° 0.1 mm 2 mps 762 mmHg 91%
    07:00 -3°C° 0.1 mm 2 mps 763 mmHg 91%
    08:00 -3°C° 0.1 mm 2 mps 764 mmHg 91%
    09:00 -3°C° 0.1 mm 2 mps 764 mmHg 90%
    10:00 -2°C° 0.1 mm 2 mps 764 mmHg 88%
    11:00 -2°C° 0.1 mm 2 mps 765 mmHg 87%
    12:00 -2°C° 0 mm 2 mps 765 mmHg 88%
    13:00 -2°C° 0 mm 2 mps 766 mmHg 88%
    14:00 -2°C° 0 mm 2 mps 766 mmHg 89%
    15:00 -3°C° 0 mm 2 mps 766 mmHg 90%
    16:00 -3°C° 0 mm 2 mps 767 mmHg 92%
    17:00 -4°C° 0 mm 2 mps 767 mmHg 93%
    18:00 -4°C° 0 mm 2 mps 767 mmHg 94%
    19:00 -4°C° 0 mm 2 mps 768 mmHg 94%
    20:00 -5°C° 0 mm 2 mps 768 mmHg 94%
    21:00 -5°C° 0 mm 2 mps 768 mmHg 94%
    22:00 -5°C° 0 mm 2 mps 769 mmHg 94%
    23:00 -5°C° 0 mm 2 mps 769 mmHg 94%

    Day after tomorrow, 16 November, Friday

    Time Temperature Precipitation Wind Pressure Humidity
    00:00 -5°C° 0 mm 2 mps 769 mmHg 94%
    01:00 -5°C° 0 mm 2 mps 770 mmHg 94%
    02:00 -5°C° 0 mm 2 mps 770 mmHg 94%
    03:00 -5°C° 0 mm 2 mps 770 mmHg 94%
    04:00 -5°C° 0 mm 2 mps 770 mmHg 95%
    05:00 -5°C° 0 mm 2 mps 770 mmHg 95%
    06:00 -5°C° 0 mm 2 mps 770 mmHg 95%
    07:00 -6°C° 0 mm 3 mps 770 mmHg 94%
    08:00 -6°C° 0 mm 3 mps 770 mmHg 94%
    09:00 -5°C° 0 mm 3 mps 770 mmHg 92%
    10:00 -4°C° 0 mm 3 mps 771 mmHg 90%
    11:00 -2°C° 0 mm 3 mps 771 mmHg 88%
    12:00 -2°C° 0 mm 3 mps 770 mmHg 89%
    13:00 -2°C° 0 mm 3 mps 770 mmHg 89%
    14:00 -1°C° 0 mm 3 mps 770 mmHg 89%
    15:00 -2°C° 0 mm 3 mps 770 mmHg 91%
    16:00 -3°C° 0 mm 4 mps 770 mmHg 92%
    17:00 -3°C° 0 mm 4 mps 770 mmHg 93%
    18:00 -4°C° 0 mm 4 mps 770 mmHg 94%
    19:00 -4°C° 0 mm 3 mps 770 mmHg 94%
    20:00 -4°C° 0 mm 3 mps 769 mmHg 94%
    21:00 -4°C° 0 mm 3 mps 769 mmHg 94%
    22:00 -4°C° 0 mm 4 mps 769 mmHg 94%
    23:00 -3°C° 0 mm 4 mps 769 mmHg 94%

    17 November, Saturday

    Time Temperature Precipitation Wind Pressure Humidity
    00:00 -3°C° 0 mm 4 mps 769 mmHg 93%
    01:00 -3°C° 0 mm 4 mps 768 mmHg 93%
    02:00 -3°C° 0 mm 4 mps 768 mmHg 93%
    03:00 -2°C° 0.1 mm 4 mps 767 mmHg 93%
    04:00 -2°C° 0.1 mm 4 mps 767 mmHg 93%
    05:00 -2°C° 0.1 mm 4 mps 766 mmHg 93%
    06:00 -1°C° 0.4 mm 4 mps 766 mmHg 93%
    07:00 -1°C° 0.4 mm 4 mps 765 mmHg 93%
    08:00 -1°C° 0.4 mm 4 mps 765 mmHg 93%
    09:00 0°C° 0.2 mm 5 mps 764 mmHg 94%
    10:00 0°C° 0.2 mm 5 mps 764 mmHg 94%
    11:00 +1°C° 0.2 mm 5 mps 763 mmHg 94%
    12:00 +1°C° 0.1 mm 5 mps 762 mmHg 94%
    13:00 +1°C° 0.1 mm 5 mps 762 mmHg 94%
    14:00 +1°C° 0.1 mm 5 mps 761 mmHg 94%
    15:00 +1°C° 0.1 mm 5 mps 760 mmHg 94%
    16:00 +1°C° 0.1 mm 5 mps 760 mmHg 94%
    17:00 +1°C° 0.1 mm 5 mps 759 mmHg 94%
    18:00 +1°C° 0.1 mm 5 mps 758 mmHg 94%
    19:00 +1°C° 0.1 mm 5 mps 757 mmHg 93%
    20:00 +1°C° 0.1 mm 5 mps 757 mmHg 93%
    21:00 +1°C° 0.1 mm 5 mps 756 mmHg 93%
    22:00 +1°C° 0.1 mm 5 mps 756 mmHg 94%
    23:00 +1°C° 0.1 mm 5 mps 755 mmHg 94%

    18 November, Sunday

    Time Temperature Precipitation Wind Pressure Humidity
    00:00 +1°C° 0.1 mm 5 mps 754 mmHg 93%
    01:00 0°C° 0.1 mm 5 mps 754 mmHg 93%
    02:00 0°C° 0.1 mm 5 mps 753 mmHg 93%
    03:00 0°C° 0.2 mm 5 mps 753 mmHg 92%
    04:00 0°C° 0.2 mm 5 mps 752 mmHg 92%
    05:00 0°C° 0.2 mm 5 mps 751 mmHg 91%
    06:00 0°C° 0.3 mm 5 mps 751 mmHg 90%
    07:00 +1°C° 0.3 mm 5 mps 751 mmHg 89%
    08:00 +1°C° 0.3 mm 6 mps 751 mmHg 87%
    09:00 +1°C° 0.4 mm 6 mps 751 mmHg 88%
    10:00 +1°C° 0.4 mm 6 mps 751 mmHg 88%
    11:00 +1°C° 0.4 mm 5 mps 752 mmHg 89%
    12:00 +1°C° 0.1 mm 6 mps 752 mmHg 89%
    13:00 +1°C° 0.1 mm 6 mps 753 mmHg 89%
    14:00 +1°C° 0.1 mm 6 mps 753 mmHg 89%
    15:00 +1°C° 0.1 mm 6 mps 754 mmHg 89%
    16:00 +1°C° 0.1 mm 6 mps 755 mmHg 89%
    17:00 +1°C° 0.1 mm 6 mps 755 mmHg 89%
    18:00 +1°C° 0.2 mm 6 mps 756 mmHg 89%
    19:00 -1°C° 0.2 mm 6 mps 756 mmHg 88%
    20:00 -1°C° 0.2 mm 6 mps 757 mmHg 88%
    21:00 -1°C° 0.1 mm 6 mps 758 mmHg 88%
    22:00 -1°C° 0.1 mm 6 mps 758 mmHg 88%
    23:00 -1°C° 0.1 mm 6 mps 759 mmHg 88%

    19 November, Monday

    Time Temperature Precipitation Wind Pressure Humidity
    00:00 0°C° 0.1 mm 5 mps 759 mmHg 88%
    01:00 0°C° 0.1 mm 5 mps 759 mmHg 88%
    02:00 -1°C° 0.1 mm 5 mps 760 mmHg 88%
    03:00 -1°C° 0.1 mm 5 mps 760 mmHg 88%
    04:00 -1°C° 0.1 mm 5 mps 760 mmHg 88%
    05:00 -1°C° 0.1 mm 5 mps 761 mmHg 88%
    06:00 -1°C° 0.1 mm 5 mps 761 mmHg 88%
    07:00 -1°C° 0.1 mm 5 mps 762 mmHg 88%
    08:00 -1°C° 0.1 mm 5 mps 762 mmHg 88%
    09:00 -1°C° 0 mm 5 mps 762 mmHg 87%
    10:00 -1°C° 0 mm 5 mps 763 mmHg 86%
    11:00 -1°C° 0 mm 5 mps 763 mmHg 86%
    12:00 -1°C° 0 mm 5 mps 763 mmHg 86%
    13:00 -1°C° 0 mm 4 mps 764 mmHg 87%
    14:00 -1°C° 0 mm 4 mps 764 mmHg 87%
    15:00 -1°C° 0 mm 4 mps 764 mmHg 88%
    16:00 -1°C° 0 mm 4 mps 764 mmHg 89%
    17:00 -1°C° 0 mm 4 mps 765 mmHg 89%
    18:00 -1°C° 0 mm 4 mps 765 mmHg 90%
    19:00 -2°C° 0 mm 4 mps 765 mmHg 91%
    20:00 -1°C° 0 mm 3 mps 765 mmHg 91%
    21:00 -1°C° 0 mm 3 mps 765 mmHg 92%
    22:00 -1°C° 0 mm 3 mps 766 mmHg 93%
    23:00 -1°C° 0 mm 2 mps 766 mmHg 93%
    Show more